Alexandria, MN

12:34 AM CDT on May 27, 2017 (GMT -0500)
Chandler

Weather History for KAXN - June, 2014

Change the Weather History Date:

Wednesday, June 18, 2014

  Actual Average Record
Temperature  
Mean Temperature 70 °F -  
Max Temperature 77 °F 75 °F 98 °F (1988)
Min Temperature 64 °F 55 °F 46 °F (1958)
Cooling Degree Days 4    
Growing Degree Days 20 (Base 50)    
Moisture  
Dew Point 61 °F    
Average Humidity 73    
Maximum Humidity 84    
Minimum Humidity 66    
Precipitation  
Precipitation 0.00 in - - ()
Sea Level Pressure  
Sea Level Pressure 29.87 in    
Wind  
Wind Speed 13 mph (East)    
Max Wind Speed 20 mph    
Max Gust Speed 32 mph    
Visibility 10 miles    
Events      
Averages and records for this station are not official NWS values.
T = Trace of Precipitation, MM = Missing Value Source: NWS Daily Summary

Daily Weather History Graph

Daily Weather History Graph

Search for Another Location

Airport or City:

Trip Planner

Search our weather history database for the weather conditions in past years. The results will help you decide how hot, cold, wet, or windy it might be!

Date:

Astronomy

Jun. 18, 2014 Rise Set
Actual Time 5:30 AM CDT 9:14 PM CDT
Civil Twilight 4:52 AM CDT 9:53 PM CDT
Nautical Twilight 4:00 AM CDT 10:44 PM CDT
Astronomical Twilight 2:49 AM CDT 11:56 PM CDT
Moon 12:26 AM CDT (6/18) 12:14 PM CDT (6/18)
Length of Visible Light 17h 00m
Length of Day
15h 43m
Waning Gibbous, 62% of the Moon is Illuminated
Jun 18
Waning Gibbous
Jun 19
Last Quarter
Jun 27
New
Jul 5
First Quarter
Jul 12
Full

Hourly Weather History & Observations

Time (CDT) Temp. Dew Point Humidity Pressure Visibility Wind Dir Wind Speed Gust Speed Precip Events Conditions
12:53 AM 70.0 °F 63.0 °F 78% 29.83 in 10.0 mi East 8.1 mph - N/A   Clear
1:53 AM 70.0 °F 63.0 °F 78% 29.84 in 10.0 mi East 9.2 mph - N/A   Partly Cloudy
2:53 AM 69.1 °F 63.0 °F 81% 29.82 in 10.0 mi ENE 6.9 mph - N/A   Scattered Clouds
3:53 AM 68.0 °F 63.0 °F 84% 29.82 in 10.0 mi ENE 10.4 mph - N/A   Scattered Clouds
5:53 AM 66.9 °F 62.1 °F 84% 29.83 in 10.0 mi ENE 10.4 mph - N/A   Partly Cloudy
6:53 AM 64.9 °F 59.0 °F 81% 29.83 in 10.0 mi ENE 10.4 mph - N/A   Clear
7:53 AM 64.0 °F 55.9 °F 75% 29.85 in 10.0 mi East 15.0 mph - N/A   Clear
8:53 AM 66.9 °F 57.9 °F 73% 29.86 in 10.0 mi East 17.3 mph 24.2 mph N/A   Clear
9:53 AM 70.0 °F 60.1 °F 71% 29.87 in 10.0 mi East 17.3 mph 23.0 mph N/A   Clear
10:53 AM 71.1 °F 61.0 °F 70% 29.89 in 10.0 mi East 12.7 mph - N/A   Clear
11:53 AM 73.0 °F 61.0 °F 66% 29.88 in 10.0 mi East 18.4 mph 21.9 mph N/A   Clear
12:53 PM 75.0 °F 63.0 °F 66% 29.88 in 10.0 mi ESE 19.6 mph 25.3 mph N/A   Clear
1:19 PM 75.2 °F 64.4 °F 69% 29.89 in 10.0 mi ESE 18.4 mph 24.2 mph N/A   Mostly Cloudy
1:53 PM 73.9 °F 63.0 °F 68% 29.89 in 10.0 mi SE 16.1 mph 21.9 mph N/A   Overcast
2:39 PM 73.4 °F 64.4 °F 73% 29.92 in 10.0 mi ESE 12.7 mph - N/A   Overcast
2:53 PM 75.9 °F 64.0 °F 67% 29.90 in 10.0 mi East 15.0 mph - N/A   Overcast
3:53 PM 75.9 °F 64.0 °F 67% 29.88 in 10.0 mi East 15.0 mph 23.0 mph N/A   Overcast
4:53 PM 75.9 °F 64.0 °F 67% 29.88 in 10.0 mi East 19.6 mph 25.3 mph N/A   Overcast
5:53 PM 75.0 °F 63.0 °F 66% 29.89 in 10.0 mi East 19.6 mph 29.9 mph N/A   Overcast
6:53 PM 73.9 °F 63.0 °F 68% 29.88 in 10.0 mi East 17.3 mph 27.6 mph N/A   Partly Cloudy
7:33 PM 73.4 °F 62.6 °F 69% 29.90 in 10.0 mi East 17.3 mph 26.5 mph N/A   Mostly Cloudy
7:53 PM 72.0 °F 62.1 °F 71% 29.90 in 10.0 mi East 17.3 mph 26.5 mph N/A   Mostly Cloudy
8:07 PM 71.6 °F 62.6 °F 73% 29.90 in 10.0 mi East 18.4 mph 27.6 mph N/A   Mostly Cloudy
8:53 PM 68.0 °F 59.0 °F 73% 29.91 in 10.0 mi East 19.6 mph 26.5 mph N/A   Clear
9:53 PM 66.0 °F 57.0 °F 73% 29.89 in 10.0 mi East 19.6 mph 32.2 mph N/A   Mostly Cloudy
10:53 PM 64.9 °F 55.9 °F 73% 29.90 in 10.0 mi East 19.6 mph 26.5 mph N/A   Overcast
11:53 PM 64.0 °F 55.9 °F 75% 29.89 in 10.0 mi East 19.6 mph 28.8 mph N/A   Mostly Cloudy